Flag for U.S.A. Weather past 2 weeks in Missoula, Montana, U.S.A.

Now
72 °F

Sunny.


Feels Like: 77 °F
Forecast: 53 / 95 °F
Wind: No wind

Location: Missoula International Airport

Current Time: Jul 31, 2014 at 10:29:22 AM

Latest Report: Jul 31, 2014 at 9:53 AM


Visibility: 10 mi

Pressure: 30.11 "Hg

Humidity: 40%

Dew point: 46 °F

Location of MissoulaLocation

Historic Weather in Missoula — Graph

°F

Missoula temperature yesterday

Maximum temperature yesterday: 94 °F (at 5:53 PM)
Minimum temperature yesterday: 58 °F (at 6:53 AM)
Average temperature yesterday: 77 °F

Past Weeks' High & Low Weather Summary

 TemperatureHumidityPressure
High96 °F (Jul 29, 3:53 PM)96% (Jul 21, 5:53 AM)30.24 "Hg (Jul 21, 5:53 AM)
Low46 °F (Jul 25, 3:53 AM)9% (Jul 29, 6:53 PM)29.71 "Hg (Jul 17, 4:53 PM)
Average71 °F42%29.99 "Hg
* Reported Jul 16 8:53 AM — Jul 31 8:53 AM, Missoula, Weather by CustomWeather, © 2014

Note: Actual official high and low records may vary slightly from our data, if they occured in-between our weather recording intervals... More about our weather records

Advertising

Missoula weather history for previous 24 hours

 ConditionsComfort  
Time TempWeatherWind HumidityBarometerVisibility
8:53 AM
Jul 31
67 °FSunny.No wind47%30.12 "Hg10 mi
7:53 AM63 °FSunny.5 mph54%30.12 "Hg10 mi
6:53 AM58 °FClear.No wind62%30.12 "Hg10 mi
5:53 AM60 °FClear.No wind58%30.09 "Hg10 mi
4:53 AM60 °FClear.No wind58%30.09 "Hg10 mi
3:53 AM65 °FClear.5 mph51%30.08 "Hg10 mi
2:53 AM66 °FClear.3 mph47%30.08 "Hg10 mi
1:53 AM68 °FClear.6 mph45%30.07 "Hg10 mi
12:53 AM71 °FClear.No wind41%30.06 "Hg10 mi
11:53 PM
Jul 30
75 °FClear.6 mph34%30.05 "Hg10 mi
10:53 PM78 °FClear.9 mph31%30.04 "Hg10 mi
9:53 PM81 °FSunny.8 mph27%30.03 "Hg10 mi
8:53 PM82 °FSunny.No wind25%30.01 "Hg10 mi
7:53 PM90 °FSunny.8 mph17%29.99 "Hg10 mi
6:53 PM90 °FSunny.9 mph15%30.00 "Hg10 mi
5:53 PM94 °FSunny.3 mph13%29.99 "Hg10 mi
4:53 PM92 °FSunny.6 mph15%29.99 "Hg10 mi
3:53 PM92 °FSunny.8 mph16%30.01 "Hg10 mi
2:53 PM90 °FSunny.8 mph20%30.01 "Hg10 mi
1:53 PM89 °FSunny.5 mph21%30.02 "Hg10 mi
12:53 PM87 °FSunny.5 mph23%30.03 "Hg10 mi
11:53 AM82 °FSunny.No wind27%30.06 "Hg10 mi
10:53 AM78 °FSunny.3 mph30%30.08 "Hg10 mi
Weather by CustomWeather, © 2014

See weather overviewHow to use our weather pages